1514041200.26,41272,7.69,73172.8,-5.85,-6.35,-6.35,0,*5A
1514041201.45,41273,7.69,73168.5,-5.83,-6.39,-6.35,0,*51
1514041202.65,41274,7.69,73142.0,-5.83,-6.35,-6.35,0,*5A
1514041203.85,41275,7.69,73126.5,-5.83,-6.39,-6.35,0,*57
1514041205.05,41276,7.69,73134.5,-5.83,-6.35,-6.35,0,*58
1514041206.25,41277,7.69,73134.8,-5.83,-6.35,-6.39,0,*55
1514041207.44,41278,7.69,73132.8,-5.83,-6.39,-6.39,0,*56
1514041208.64,41279,7.69,73126.0,-5.83,-6.35,-6.35,0,*57
1514041209.84,41280,7.69,73122.8,-5.83,-6.35,-6.35,0,*51
1514041211.04,41281,7.69,73130.5,-5.83,-6.35,-6.35,0,*50
1514041212.24,41282,7.69,73126.0,-5.83,-6.35,-6.35,0,*53
1514041213.47,41283,7.69,73142.8,-5.83,-6.35,-6.27,0,*51
1514041214.69,41284,7.69,73148.8,-5.83,-6.35,-6.27,0,*56
1514041215.89,41285,7.69,73164.3,-5.83,-6.35,-6.35,0,*54
1514041217.09,41286,7.69,73174.8,-5.83,-6.39,-6.35,0,*5B
1514041218.34,41287,7.69,73180.8,-5.85,-6.35,-6.27,0,*53
1514041219.54,41288,7.69,73184.8,-5.79,-6.31,-6.31,0,*5C
1514041220.75,41289,7.69,73166.5,-5.79,-6.35,-6.31,0,*59
1514041221.95,41290,7.69,73160.5,-5.79,-6.31,-6.35,0,*51
1514041223.15,41291,7.69,73162.5,-5.83,-6.39,-6.35,0,*5D
1514041224.36,41292,7.69,73178.3,-5.83,-6.27,-6.35,0,*51
1514041225.56,41293,7.69,73188.0,-5.83,-6.39,-6.35,0,*5F
1514041226.76,41294,7.69,73222.0,-5.83,-6.35,-6.35,0,*54
1514041227.96,41295,7.69,73214.0,-5.83,-6.35,-6.35,0,*55
1514041229.16,41296,7.69,73186.3,-5.83,-6.35,-6.35,0,*56
1514041230.36,41297,7.69,73166.5,-5.83,-6.35,-6.35,0,*57
1514041231.56,41298,7.75,73150.5,-5.83,-6.39,-6.35,0,*54
1514041232.76,41299,7.69,73138.5,-5.83,-6.35,-6.35,0,*59
1514041233.96,41300,7.69,73140.8,-5.83,-6.39,-6.35,0,*54
1514041235.2,41301,7.69,73132.3,-5.83,-6.27,-6.27,0,*59
1514041236.4,41302,7.69,73140.8,-5.83,-6.35,-6.35,0,*5A
1514041237.59,41303,7.69,73128.8,-5.83,-6.39,-6.35,0,*57
1514041238.8,41304,7.69,73116.5,-5.79,-6.31,-6.31,0,*59
1514041240.0,41305,7.69,73120.8,-5.83,-6.35,-6.39,0,*51
1514041241.19,41306,7.69,73122.5,-5.83,-6.35,-6.39,0,*52
1514041242.39,41307,7.69,73120.8,-5.83,-6.39,-6.35,0,*53
1514041243.59,41308,7.69,73108.0,-5.79,-6.31,-6.35,0,*51
1514041244.8,41309,7.69,73110.0,-5.79,-6.31,-6.31,0,*54
1514041246.0,41310,7.69,73116.3,-5.79,-6.31,-6.31,0,*5C
1514041247.2,41311,7.69,73120.3,-5.79,-6.31,-6.31,0,*5D
1514041248.41,41312,7.69,73114.0,-5.79,-6.35,-6.31,0,*5A
1514041249.62,41313,7.69,73158.5,-5.79,-6.35,-6.31,0,*5B
1514041250.84,41314,7.69,73114.8,-5.79,-6.23,-6.31,0,*5B
1514041252.05,41315,7.69,73116.5,-5.79,-6.31,-6.35,0,*5D
1514041253.25,41316,7.69,73128.3,-5.79,-6.31,-6.31,0,*5A
1514041254.45,41317,7.69,73110.0,-5.79,-6.31,-6.31,0,*5B
1514041255.66,41318,7.69,73116.3,-5.79,-6.31,-6.31,0,*54
1514041256.86,41319,7.69,73110.0,-5.79,-6.35,-6.31,0,*51
1514041258.07,41320,7.69,73124.5,-5.79,-6.31,-6.31,0,*5F
1514041259.28,41321,7.69,73124.3,-5.79,-6.35,-6.31,0,*5A
1514041260.48,41322,7.69,73120.0,-5.79,-6.35,-6.31,0,*59
1514041261.69,41323,7.69,73144.0,-5.79,-6.35,-6.31,0,*58
1514041262.91,41324,7.69,73152.3,-5.79,-6.31,-6.23,0,*58
1514041264.12,41325,7.69,73176.0,-5.79,-6.31,-6.31,0,*5A
1514041265.32,41326,7.69,73184.3,-5.79,-6.35,-6.31,0,*5D
1514041266.55,41327,7.69,73190.3,-5.77,-6.31,-6.31,0,*56
1514041267.75,41328,7.69,73194.5,-5.79,-6.31,-6.35,0,*53
1514041268.98,41329,7.69,73186.8,-5.77,-6.35,-6.35,0,*58
1514041270.18,41330,7.69,73178.0,-5.79,-6.31,-6.31,0,*5E
1514041271.39,41331,7.69,73172.8,-5.79,-6.31,-6.31,0,*5F
1514041272.6,41332,7.69,73162.0,-5.79,-6.35,-6.31,0,*58
1514041273.8,41333,7.69,73152.8,-5.79,-6.31,-6.35,0,*59
1514041275.02,41334,7.69,73140.0,-5.77,-6.31,-6.31,0,*54
1514041276.26,41335,7.69,73138.0,-5.77,-6.35,-6.31,0,*51
1514041277.46,41336,7.69,73138.5,-5.79,-6.31,-6.31,0,*58
1514041278.66,41337,7.69,73136.0,-5.79,-6.31,-6.31,0,*59
1514041279.87,41338,7.69,73140.3,-5.79,-6.31,-6.31,0,*56
1514041281.07,41339,7.69,73140.3,-5.79,-6.31,-6.31,0,*57
1514041282.28,41340,7.69,73132.5,-5.79,-6.31,-6.31,0,*59
1514041283.48,41341,7.69,73138.5,-5.79,-6.35,-6.35,0,*58
1514041284.73,41342,7.69,73130.8,-5.77,-6.35,-6.23,0,*52
1514041285.93,41343,7.69,73126.3,-5.79,-6.31,-6.35,0,*5E
1514041287.13,41344,7.69,73146.0,-5.79,-6.31,-6.35,0,*59
1514041288.34,41345,7.69,73180.0,-5.79,-6.35,-6.35,0,*5C
1514041289.54,41346,7.69,73178.3,-5.79,-6.31,-6.31,0,*5F
1514041290.75,41347,7.69,73186.8,-5.79,-6.35,-6.35,0,*5E
1514041291.95,41348,7.69,73196.5,-5.79,-6.35,-6.31,0,*55
1514041293.18,41349,7.69,73198.0,-5.77,-6.35,-6.31,0,*5A
1514041294.39,41350,7.69,73182.3,-5.79,-6.35,-6.35,0,*58
1514041295.59,41351,7.69,73158.3,-5.79,-6.31,-6.31,0,*59
1514041296.82,41352,7.69,73162.8,-5.77,-6.31,-6.31,0,*54
1514041298.05,41353,7.69,73172.5,-5.77,-6.31,-6.31,0,*55
1514041299.25,41354,7.69,73174.0,-5.79,-6.35,-6.31,0,*58
1514041300.48,41355,7.75,73176.0,-5.77,-6.31,-6.31,0,*53
1514041301.71,41356,7.69,73166.5,-5.77,-6.31,-6.31,0,*50
1514041302.94,41357,7.69,73166.0,-5.77,-6.35,-6.31,0,*55
1514041304.15,41358,7.69,73166.5,-5.79,-6.35,-6.31,0,*54
1514041305.38,41359,7.69,73154.5,-5.77,-6.35,-6.31,0,*5B
1514041306.58,41360,7.69,73158.3,-5.79,-6.35,-6.31,0,*5F
1514041307.79,41361,7.69,73168.0,-5.79,-6.35,-6.35,0,*5A
1514041308.99,41362,7.69,73174.8,-5.79,-6.35,-6.35,0,*59
1514041310.22,41363,7.69,73178.0,-5.77,-6.31,-6.35,0,*52
1514041311.42,41364,7.69,73174.3,-5.79,-6.31,-6.31,0,*5F
1514041312.65,41365,7.69,73176.3,-5.77,-6.35,-6.35,0,*50
1514041313.88,41366,7.69,73172.0,-5.77,-6.31,-6.31,0,*53
1514041315.08,41367,7.69,73120.8,-5.79,-6.35,-6.35,0,*5C
1514041316.29,41368,7.69,73094.5,-5.79,-6.35,-6.31,0,*57
1514041317.49,41369,7.69,73068.3,-5.79,-6.31,-6.35,0,*56
1514041318.7,41370,7.69,73114.8,-5.79,-6.35,-6.35,0,*5A
1514041319.9,41371,7.69,73116.0,-5.79,-6.35,-6.31,0,*5F
1514041321.11,41372,7.69,73196.0,-5.79,-6.31,-6.31,0,*58
1514041322.31,41373,7.69,73226.3,-5.79,-6.35,-6.35,0,*59
1514041323.52,41374,7.69,73204.8,-5.79,-6.31,-6.35,0,*5A
1514041324.72,41375,7.69,73192.3,-5.79,-6.35,-6.31,0,*5B
1514041325.93,41376,7.69,73184.8,-5.79,-6.35,-6.35,0,*5C
1514041327.14,41377,7.69,73182.8,-5.79,-6.35,-6.31,0,*59
1514041328.36,41378,7.69,73158.0,-5.77,-6.31,-6.35,0,*58
1514041329.56,41379,7.69,73136.3,-5.79,-6.35,-6.35,0,*53
1514041330.77,41380,7.75,73136.8,-5.79,-6.35,-6.35,0,*55
1514041331.98,41381,7.69,73138.5,-5.79,-6.35,-6.35,0,*54
1514041333.18,41382,7.69,73134.3,-5.79,-6.31,-6.31,0,*57
1514041334.4,41383,7.69,73136.5,-5.77,-6.31,-6.35,0,*5C
1514041335.61,41384,7.69,73150.8,-5.79,-6.35,-6.35,0,*51
1514041336.81,41385,7.69,73146.8,-5.79,-6.35,-6.35,0,*50
1514041338.02,41386,7.69,73132.8,-5.79,-6.31,-6.35,0,*57
1514041339.22,41387,7.69,73116.5,-5.79,-6.31,-6.31,0,*52
1514041340.42,41388,7.69,73106.8,-5.79,-6.31,-6.35,0,*59
1514041341.63,41389,7.69,73090.5,-5.79,-6.35,-6.35,0,*5C
1514041342.83,41390,7.69,73090.8,-5.79,-6.35,-6.31,0,*50
1514041344.06,41391,7.69,73076.5,-5.77,-6.31,-6.31,0,*5B
1514041345.27,41392,7.69,73080.0,-5.79,-6.35,-6.35,0,*56
1514041346.47,41393,7.69,73100.0,-5.79,-6.35,-6.35,0,*57
1514041347.68,41394,7.69,73106.8,-5.79,-6.35,-6.35,0,*50
1514041348.91,41395,7.69,73108.5,-5.77,-6.35,-6.31,0,*5B
1514041350.11,41396,7.69,73108.3,-5.79,-6.31,-6.35,0,*56
1514041351.31,41397,7.69,73116.5,-5.79,-6.35,-6.35,0,*53
1514041352.52,41398,7.69,73114.5,-5.79,-6.35,-6.31,0,*58
1514041353.75,41399,7.69,73126.3,-5.77,-6.31,-6.35,0,*57
1514041354.95,41400,7.69,73128.5,-5.79,-6.35,-6.35,0,*5A
1514041356.16,41401,7.69,73112.3,-5.79,-6.35,-6.35,0,*5B
1514041357.39,41402,7.69,73126.5,-5.77,-6.35,-6.31,0,*52
1514041358.59,41403,7.69,73120.3,-5.79,-6.31,-6.35,0,*5D
1514041359.82,41404,7.69,73102.5,-5.77,-6.35,-6.35,0,*50
1514041361.02,41405,7.69,73106.3,-5.79,-6.31,-6.35,0,*5B
1514041362.24,41406,7.69,73092.0,-5.77,-6.31,-6.35,0,*56
1514041363.47,41407,7.69,73082.0,-5.79,-6.35,-6.23,0,*5A
1514041364.67,41408,7.69,73068.3,-5.79,-6.31,-6.31,0,*52
1514041365.88,41409,7.69,73074.3,-5.79,-6.31,-6.31,0,*53
1514041367.08,41410,7.69,73108.8,-5.79,-6.35,-6.31,0,*5F
1514041368.31,41411,7.69,73098.3,-5.77,-6.31,-6.35,0,*50
1514041369.54,41412,7.69,73146.8,-5.77,-6.35,-6.31,0,*53
1514041370.74,41413,7.69,73142.8,-5.79,-6.35,-6.35,0,*58
1514041371.95,41414,7.69,73152.3,-5.79,-6.35,-6.35,0,*5F
1514041373.15,41415,7.69,73154.0,-5.79,-6.31,-6.31,0,*5E
1514041374.38,41416,7.69,73142.5,-5.77,-6.35,-6.31,0,*57
1514041375.59,41417,7.69,73096.8,-5.79,-6.31,-6.31,0,*5C
1514041376.79,41418,7.69,73122.8,-5.79,-6.31,-6.31,0,*53
1514041378.02,41419,7.69,73110.0,-5.77,-6.31,-6.31,0,*5C
1514041379.22,41420,7.69,73090.8,-5.79,-6.31,-6.35,0,*5C
1514041380.43,41421,7.69,73144.8,-5.79,-6.35,-6.31,0,*5D
1514041381.63,41422,7.69,73140.0,-5.79,-6.31,-6.31,0,*5A
1514041382.83,41423,7.69,73174.8,-5.79,-6.31,-6.35,0,*5F
1514041384.06,41424,7.69,73146.5,-5.77,-6.31,-6.35,0,*56
1514041385.27,41425,7.69,73144.0,-5.79,-6.35,-6.31,0,*59
1514041386.47,41426,7.69,73158.3,-5.79,-6.35,-6.31,0,*5A
1514041387.7,41427,7.69,73152.8,-5.77,-6.31,-6.31,0,*51
1514041388.91,41428,7.69,73136.0,-5.79,-6.35,-6.35,0,*50
1514041390.11,41429,7.69,73138.3,-5.79,-6.35,-6.31,0,*55
1514041391.34,41430,7.69,73138.5,-5.77,-6.35,-6.35,0,*57
1514041392.54,41431,7.69,73138.0,-5.79,-6.31,-6.35,0,*5C
1514041393.75,41432,7.69,73132.3,-5.79,-6.31,-6.35,0,*5F
1514041394.95,41433,7.69,73128.5,-5.79,-6.31,-6.35,0,*5E
1514041396.15,41434,7.69,73110.0,-5.79,-6.35,-6.35,0,*5D
1514041397.38,41435,7.69,73108.0,-5.77,-6.35,-6.31,0,*56
1514041398.61,41436,7.69,73106.0,-5.77,-6.35,-6.35,0,*51
1514041399.82,41437,7.69,73106.0,-5.79,-6.31,-6.31,0,*5E
1514041401.02,41438,7.69,73068.5,-5.79,-6.35,-6.43,0,*50
1514041402.22,41439,7.69,73100.3,-5.79,-6.31,-6.31,0,*50
1514041403.45,41440,7.69,73092.3,-5.77,-6.35,-6.31,0,*54
1514041404.66,41441,7.75,73038.5,-5.79,-6.43,-6.35,0,*5E
1514041405.88,41442,7.69,73048.3,-5.77,-6.35,-6.35,0,*52
1514041407.09,41443,7.69,73048.0,-5.79,-6.31,-6.35,0,*59
1514041408.29,41444,7.69,73046.0,-5.79,-6.35,-6.35,0,*5A
1514041409.5,41445,7.69,73036.0,-5.79,-6.31,-6.31,0,*5B
1514041410.72,41446,7.69,73012.8,-5.77,-6.43,-6.31,0,*53
1514041411.93,41447,7.69,73042.3,-5.79,-6.35,-6.35,0,*59
1514041413.16,41448,7.69,73068.3,-5.77,-6.35,-6.31,0,*5C
1514041414.36,41449,7.69,73084.0,-5.79,-6.35,-6.31,0,*53
1514041415.59,41450,7.69,72972.3,-5.77,-6.35,-6.31,0,*55
1514041416.8,41451,7.69,72972.3,-5.79,-6.35,-6.35,0,*5E
1514041418.03,41452,7.69,72982.8,-5.77,-6.35,-6.35,0,*53
1514041419.26,41453,7.69,73026.0,-5.77,-6.35,-6.31,0,*56
1514041420.46,41454,7.69,73046.5,-5.79,-6.31,-6.35,0,*5F
1514041421.69,41455,7.69,73020.8,-5.77,-6.43,-6.35,0,*55
1514041422.91,41456,7.69,73048.8,-5.77,-6.31,-6.35,0,*53
1514041424.14,41457,7.69,73056.8,-5.77,-6.35,-6.35,0,*56
1514041425.36,41458,7.75,73064.5,-5.77,-6.31,-6.35,0,*5D
1514041426.59,41459,7.69,73072.3,-5.77,-6.35,-6.35,0,*58
1514041427.82,41460,7.69,73048.3,-5.77,-6.35,-6.35,0,*52
1514041429.03,41461,7.75,73062.3,-5.79,-6.35,-6.31,0,*59
1514041430.26,41462,7.69,73060.8,-5.77,-6.35,-6.31,0,*54
1514041431.48,41463,7.69,73088.5,-5.77,-6.31,-6.35,0,*55
1514041432.71,41464,7.69,73102.5,-5.77,-6.35,-6.35,0,*56
1514041433.92,41465,7.69,73102.0,-5.79,-6.31,-6.31,0,*59
1514041435.12,41466,7.69,73098.0,-5.79,-6.35,-6.31,0,*5E
1514041436.35,41467,7.69,73098.3,-5.77,-6.35,-6.35,0,*55
1514041437.56,41468,7.69,73124.8,-5.79,-6.35,-6.31,0,*50
1514041438.76,41469,7.69,73112.0,-5.79,-6.35,-6.35,0,*55
1514041439.97,41470,7.69,73120.5,-5.79,-6.31,-6.35,0,*59
1514041441.17,41471,7.69,73146.5,-5.79,-6.35,-6.35,0,*5C
1514041442.4,41472,7.69,73136.3,-5.77,-6.35,-6.35,0,*51
1514041443.6,41473,7.69,73140.5,-5.79,-6.31,-6.35,0,*5A
1514041444.83,41474,7.69,73150.8,-5.77,-6.31,-6.43,0,*52
1514041446.05,41475,7.69,73160.0,-5.77,-6.35,-6.43,0,*57
1514041447.28,41476,7.69,73146.8,-5.77,-6.35,-6.31,0,*51
1514041448.51,41477,7.69,73146.3,-5.77,-6.43,-6.35,0,*55
1514041449.74,41478,7.69,73136.8,-5.77,-6.35,-6.31,0,*5F
1514041450.94,41479,7.69,73130.5,-5.79,-6.35,-6.35,0,*54
1514041452.17,41480,7.69,73114.0,-5.77,-6.31,-6.35,0,*58
1514041453.38,41481,7.69,73114.0,-5.79,-6.35,-6.31,0,*57
1514041454.58,41482,7.69,73098.0,-5.79,-6.35,-6.31,0,*54
1514041455.79,41483,7.69,73094.8,-5.79,-6.35,-6.31,0,*55
1514041457.02,41484,7.69,73096.0,-5.77,-6.35,-6.35,0,*58
1514041458.22,41485,7.69,73104.5,-5.79,-6.43,-6.35,0,*56
1514041459.45,41486,7.69,73118.0,-5.77,-6.35,-6.35,0,*5A
1514041460.65,41487,7.69,73140.8,-5.79,-6.31,-6.35,0,*51
1514041461.85,41488,7.69,73148.3,-5.79,-6.43,-6.35,0,*5B
1514041463.08,41489,7.69,73154.0,-5.77,-6.35,-6.35,0,*55
1514041464.28,41490,7.69,73160.5,-5.79,-6.35,-6.35,0,*53
1514041465.51,41491,7.69,73164.0,-5.77,-6.31,-6.35,0,*58
1514041466.72,41492,7.69,73168.0,-5.79,-6.35,-6.31,0,*55
1514041467.92,41493,7.75,73166.0,-5.79,-6.31,-6.35,0,*54
1514041469.12,41494,7.69,73150.5,-5.79,-6.35,-6.35,0,*57
1514041470.35,41495,7.69,73148.5,-5.77,-6.31,-6.35,0,*5C
1514041471.55,41496,7.69,73134.0,-5.79,-6.35,-6.35,0,*55
1514041472.76,41497,7.69,73132.5,-5.79,-6.35,-6.35,0,*54
1514041473.96,41498,7.69,73142.5,-5.79,-6.35,-6.35,0,*5B
1514041475.17,41499,7.69,73178.5,-5.79,-6.35,-6.35,0,*5A
1514041476.4,41500,7.69,73180.5,-5.77,-6.35,-6.35,0,*55
1514041477.6,41501,7.69,73180.5,-5.79,-6.35,-6.31,0,*5E
1514041478.83,41502,7.69,73184.5,-5.77,-6.35,-6.35,0,*57
1514041480.06,41503,7.69,73172.0,-5.77,-6.35,-6.35,0,*56
1514041481.27,41504,7.69,73168.8,-5.79,-6.35,-6.35,0,*5F
1514041482.49,41505,7.69,73160.0,-5.77,-6.35,-6.35,0,*50
1514041483.7,41506,7.69,73140.8,-5.79,-6.35,-6.31,0,*59
1514041484.9,41507,7.69,73128.8,-5.79,-6.35,-6.35,0,*5C
1514041486.13,41508,7.69,73154.5,-5.77,-6.35,-6.35,0,*5D
1514041487.36,41509,7.69,73140.5,-5.77,-6.31,-6.35,0,*58
1514041488.56,41510,7.69,73130.0,-5.79,-6.31,-6.35,0,*5E
1514041489.76,41511,7.75,73126.8,-5.79,-6.35,-6.35,0,*5B
1514041490.97,41512,7.69,73110.8,-5.79,-6.35,-6.31,0,*5C
1514041492.18,41513,7.75,73096.5,-5.79,-6.35,-6.35,0,*59
1514041493.38,41514,7.69,73088.8,-5.79,-6.35,-6.31,0,*5A
1514041494.59,41515,7.69,73090.0,-5.79,-6.35,-6.35,0,*5F
1514041495.82,41516,7.69,73090.5,-5.77,-6.35,-6.31,0,*56
1514041497.05,41517,7.69,73084.0,-5.77,-6.35,-6.43,0,*52
1514041498.25,41518,7.69,73086.8,-5.79,-6.35,-6.35,0,*52
1514041499.48,41519,7.69,73084.8,-5.77,-6.35,-6.43,0,*5C
1514041500.71,41520,7.69,73092.3,-5.77,-6.35,-6.35,0,*57
1514041501.93,41521,7.69,73090.3,-5.77,-6.43,-6.31,0,*53
1514041503.16,41522,7.69,73062.5,-5.77,-6.35,-6.35,0,*55
1514041504.39,41523,7.69,73082.3,-5.77,-6.35,-6.35,0,*54
1514041505.62,41524,7.69,73080.5,-5.77,-6.31,-6.35,0,*57
1514041506.84,41525,7.69,73078.0,-5.77,-6.35,-6.35,0,*52
1514041508.05,41526,7.69,73088.0,-5.79,-6.43,-6.31,0,*5A
1514041509.27,41527,7.69,73108.3,-5.77,-6.43,-6.35,0,*51
1514041510.5,41528,7.69,73106.5,-5.77,-6.35,-6.31,0,*5B
1514041511.71,41529,7.69,73076.3,-5.79,-6.35,-6.35,0,*50
1514041512.94,41530,7.69,73058.8,-5.77,-6.35,-6.35,0,*56
1514041514.14,41531,7.69,73106.5,-5.79,-6.35,-6.35,0,*59
1514041515.35,41532,7.69,73104.8,-5.79,-6.35,-6.31,0,*5E
1514041516.56,41533,7.69,73106.3,-5.79,-6.35,-6.35,0,*5B
1514041517.79,41534,7.69,73152.8,-5.77,-6.35,-6.31,0,*56
1514041519.01,41535,7.69,73136.0,-5.77,-6.43,-6.31,0,*56
1514041520.22,41536,7.69,73088.5,-5.79,-6.35,-6.35,0,*5E
1514041521.42,41537,7.69,73070.3,-5.79,-6.35,-6.35,0,*5F
1514041522.65,41538,7.69,73078.8,-5.77,-6.31,-6.35,0,*5A
1514041523.88,41539,7.69,73066.3,-5.77,-6.35,-6.35,0,*5F
1514041525.08,41540,7.69,73104.0,-5.79,-6.35,-6.43,0,*5E
1514041526.31,41541,7.69,73114.3,-5.77,-6.43,-6.31,0,*55
1514041527.54,41542,7.69,73096.8,-5.77,-6.35,-6.35,0,*53
1514041528.74,41543,7.69,73108.0,-5.79,-6.35,-6.35,0,*5C
1514041529.94,41544,7.69,73110.5,-5.79,-6.35,-6.43,0,*5A
1514041531.15,41545,7.69,73134.8,-5.79,-6.43,-6.35,0,*5B
1514041532.37,41546,7.69,73126.8,-5.77,-6.43,-6.35,0,*56
1514041533.6,41547,7.69,73180.5,-5.77,-6.31,-6.35,0,*52
1514041534.82,41548,7.69,73162.3,-5.77,-6.35,-6.35,0,*59
1514041536.03,41549,7.69,73124.3,-5.79,-6.35,-6.35,0,*56
1514041537.23,41550,7.69,73076.3,-5.79,-6.43,-6.35,0,*5F
1514041538.44,41551,7.69,73030.5,-5.79,-6.35,-6.31,0,*5B
1514041539.64,41552,7.69,73044.5,-5.79,-6.31,-6.35,0,*58
1514041540.84,41553,7.69,73144.8,-5.79,-6.35,-6.35,0,*5D
1514041542.07,41554,7.69,73164.0,-5.77,-6.35,-6.43,0,*55
1514041543.3,41555,7.69,73126.0,-5.77,-6.35,-6.35,0,*55
1514041544.53,41556,7.69,73138.0,-5.77,-6.35,-6.31,0,*52
1514041545.73,41557,7.69,73118.5,-5.79,-6.31,-6.35,0,*5D
1514041546.94,41558,7.69,73110.3,-5.79,-6.35,-6.35,0,*56
1514041548.16,41559,7.69,73122.0,-5.77,-6.35,-6.35,0,*59
1514041549.39,41560,7.69,73150.5,-5.77,-6.31,-6.35,0,*57
1514041550.6,41561,7.75,73178.3,-5.79,-6.35,-6.35,0,*5C
1514041551.82,41562,7.69,73182.8,-5.77,-6.35,-6.35,0,*51
1514041553.03,41563,7.69,73148.8,-5.79,-6.35,-6.35,0,*5E
1514041554.23,41564,7.69,73156.3,-5.79,-6.31,-6.35,0,*5D
1514041555.46,41565,7.69,73152.8,-5.77,-6.35,-6.35,0,*56
1514041556.69,41566,7.69,73136.3,-5.77,-6.35,-6.35,0,*55
1514041557.91,41567,7.69,73146.5,-5.77,-6.35,-6.35,0,*54
1514041559.14,41568,7.69,73098.0,-5.77,-6.35,-6.35,0,*5B
1514041560.35,41569,7.69,73096.5,-5.79,-6.35,-6.35,0,*54
1514041561.55,41570,7.69,73128.0,-5.79,-6.35,-6.31,0,*58
1514041562.78,41571,7.75,73120.5,-5.77,-6.43,-6.35,0,*52
1514041564.0,41572,7.69,73102.3,-5.77,-6.43,-6.35,0,*51
1514041565.23,41573,7.69,73076.0,-5.77,-6.43,-6.35,0,*50
1514041566.46,41574,7.69,73022.5,-5.77,-6.43,-6.31,0,*53
1514041567.66,41575,7.69,73006.0,-5.79,-6.31,-6.31,0,*59
1514041568.86,41576,7.69,73004.3,-5.79,-6.35,-6.35,0,*5A
1514041570.09,41577,7.69,73024.0,-5.77,-6.31,-6.31,0,*55
1514041571.32,41578,7.75,73062.3,-5.77,-6.35,-6.35,0,*5A
1514041572.55,41579,7.69,73040.8,-5.77,-6.31,-6.35,0,*5F
1514041573.77,41580,7.69,73054.8,-5.77,-6.35,-6.35,0,*5D
1514041575.0,41581,7.69,73052.0,-5.77,-6.43,-6.35,0,*5D
1514041576.23,41582,7.69,73054.3,-5.77,-6.35,-6.35,0,*5F
1514041577.45,41583,7.75,73076.8,-5.77,-6.43,-6.35,0,*5F
1514041578.65,41584,7.69,73076.3,-5.79,-6.43,-6.35,0,*56
1514041579.88,41585,7.69,73084.8,-5.77,-6.35,-6.31,0,*5C
1514041581.09,41586,7.75,73078.5,-5.79,-6.35,-6.31,0,*51
1514041582.32,41587,7.69,73078.0,-5.77,-6.35,-6.35,0,*5A
1514041583.55,41588,7.69,73070.0,-5.77,-6.31,-6.31,0,*55
1514041584.75,41589,7.69,73084.0,-5.79,-6.31,-6.35,0,*5E
1514041585.98,41590,7.69,73080.3,-5.77,-6.35,-6.35,0,*5C
1514041587.18,41591,7.75,73056.5,-5.79,-6.35,-6.31,0,*57
1514041588.41,41592,7.69,73026.0,-5.77,-6.35,-6.31,0,*5A
1514041589.64,41593,7.69,73040.8,-5.77,-6.35,-6.31,0,*5B
1514041590.87,41594,7.69,73038.8,-5.77,-6.35,-6.35,0,*58
1514041592.1,41595,7.69,73078.8,-5.77,-6.35,-6.35,0,*59
1514041593.31,41596,7.69,73074.8,-5.79,-6.35,-6.35,0,*54
1514041594.53,41597,7.69,73098.0,-5.77,-6.35,-6.35,0,*5B
1514041595.76,41598,7.69,73100.3,-5.77,-6.35,-6.35,0,*54
1514041596.99,41599,7.69,73098.5,-5.77,-6.35,-6.31,0,*51
1514041598.22,41600,7.75,73098.3,-5.77,-6.35,-6.31,0,*52
1514041599.45,41601,7.69,73086.8,-5.77,-6.35,-6.35,0,*57
1514041600.68,41602,7.69,73088.8,-5.77,-6.35,-6.43,0,*55
1514041601.9,41603,7.69,73094.0,-5.77,-6.35,-6.43,0,*54
1514041603.13,41604,7.69,73098.8,-5.77,-6.35,-6.35,0,*52
1514041604.36,41605,7.69,73104.3,-5.77,-6.31,-6.35,0,*57
1514041605.57,41606,7.69,73124.8,-5.79,-6.35,-6.31,0,*5A
1514041606.79,41607,7.69,73132.8,-5.77,-6.35,-6.35,0,*51
1514041608.02,41608,7.69,73134.5,-5.77,-6.31,-6.31,0,*5E
1514041609.23,41609,7.75,73126.8,-5.79,-6.35,-6.35,0,*51
1514041610.45,41610,7.69,73126.5,-5.77,-6.35,-6.35,0,*57
1514041611.68,41611,7.75,73138.3,-5.77,-6.35,-6.35,0,*56
1514041612.91,41612,7.69,73134.8,-5.77,-6.35,-6.35,0,*55
1514041614.11,41613,7.69,73126.0,-5.79,-6.35,-6.35,0,*5A
1514041615.34,41614,7.69,73124.5,-5.77,-6.35,-6.35,0,*53
1514041616.57,41615,7.69,73128.8,-5.77,-6.35,-6.31,0,*56
1514041617.78,41616,7.69,73126.0,-5.79,-6.43,-6.31,0,*5A
1514041619.0,41617,7.69,73118.8,-5.77,-6.43,-6.35,0,*51
1514041620.21,41618,7.69,73110.3,-5.79,-6.35,-6.43,0,*50
1514041621.43,41619,7.69,73114.5,-5.77,-6.35,-6.35,0,*5E
1514041622.66,41620,7.69,73112.3,-5.77,-6.43,-6.35,0,*55
1514041623.89,41621,7.69,73118.5,-5.77,-6.35,-6.35,0,*55
1514041625.09,41622,7.69,73096.3,-5.79,-6.35,-6.35,0,*58
1514041626.3,41623,7.69,73102.5,-5.79,-6.35,-6.35,0,*59
1514041627.53,41624,7.69,73116.5,-5.77,-6.35,-6.35,0,*50
1514041628.75,41625,7.69,73134.0,-5.77,-6.35,-6.35,0,*51
1514041629.98,41626,7.69,73140.0,-5.77,-6.35,-6.35,0,*52
1514041631.21,41627,7.69,73132.5,-5.77,-6.43,-6.35,0,*52
1514041632.41,41628,7.69,73122.8,-5.79,-6.43,-6.31,0,*57
1514041633.64,41629,7.75,73134.0,-5.77,-6.35,-6.35,0,*5D
1514041634.87,41630,7.69,73142.0,-5.77,-6.31,-6.31,0,*55
1514041636.09,41631,7.69,73142.5,-5.77,-6.35,-6.35,0,*54
1514041637.32,41632,7.69,73138.5,-5.77,-6.35,-6.35,0,*57
1514041638.55,41633,7.69,73134.8,-5.77,-6.31,-6.35,0,*52
1514041639.75,41634,7.69,73132.8,-5.79,-6.35,-6.35,0,*5F
1514041640.98,41635,7.69,73138.3,-5.77,-6.35,-6.35,0,*50
1514041642.21,41636,7.69,73144.3,-5.77,-6.35,-6.35,0,*53
1514041643.44,41637,7.69,73124.3,-5.77,-6.35,-6.35,0,*52
1514041644.64,41638,7.69,73126.5,-5.79,-6.43,-6.35,0,*52
1514041645.87,41639,7.69,73138.0,-5.77,-6.35,-6.35,0,*5C
1514041647.09,41640,7.69,73142.8,-5.77,-6.35,-6.35,0,*52
1514041648.32,41641,7.69,73166.0,-5.77,-6.35,-6.43,0,*52
1514041649.55,41642,7.75,73160.0,-5.77,-6.43,-6.35,0,*51
1514041650.75,41643,7.69,73150.8,-5.79,-6.43,-6.35,0,*5E
1514041651.97,41644,7.69,73146.3,-5.77,-6.43,-6.35,0,*57
1514041653.17,41645,7.69,73124.0,-5.79,-6.43,-6.35,0,*58
1514041654.4,41646,7.75,73130.3,-5.77,-6.35,-6.35,0,*54
1514041655.63,41647,7.69,73134.5,-5.77,-6.35,-6.31,0,*51
1514041656.86,41648,7.69,73138.8,-5.77,-6.35,-6.43,0,*5B
1514041658.09,41649,7.69,73152.8,-5.77,-6.35,-6.35,0,*5B
1514041659.29,41650,7.75,73140.0,-5.79,-6.31,-6.35,0,*59
1514041660.5,41651,7.75,73156.5,-5.79,-6.35,-6.31,0,*58
1514041661.7,41652,7.69,73156.8,-5.79,-6.35,-6.35,0,*5F
1514041662.93,41653,7.69,73188.3,-5.77,-6.43,-6.35,0,*51
1514041664.16,41654,7.69,73174.8,-5.77,-6.35,-6.35,0,*57
1514041665.38,41655,7.69,73168.5,-5.77,-6.35,-6.35,0,*56
1514041666.59,41656,7.69,73140.8,-5.79,-6.43,-6.35,0,*5A
1514041667.82,41657,7.69,73102.3,-5.77,-6.35,-6.31,0,*50
1514041669.02,41658,7.69,73060.5,-5.79,-6.35,-6.35,0,*55
1514041670.23,41659,7.69,73076.0,-5.79,-6.35,-6.35,0,*54
1514041671.43,41660,7.69,73104.3,-5.79,-6.35,-6.35,0,*5E
1514041672.66,41661,7.69,73148.8,-5.77,-6.35,-6.31,0,*55
1514041673.89,41662,7.69,73174.8,-5.77,-6.35,-6.31,0,*56
1514041675.09,41663,7.75,73146.8,-5.79,-6.43,-6.35,0,*5C
1514041676.32,41664,7.69,73136.5,-5.77,-6.31,-6.35,0,*50
1514041677.55,41665,7.69,73154.5,-5.77,-6.35,-6.35,0,*55
1514041678.77,41666,7.69,73154.3,-5.77,-6.35,-6.35,0,*56
1514041680.0,41667,7.75,73156.5,-5.77,-6.35,-6.43,0,*56
1514041681.2,41668,7.69,73166.8,-5.79,-6.31,-6.43,0,*53
1514041682.43,41669,7.75,73156.0,-5.77,-6.35,-6.35,0,*59
1514041683.65,41670,7.69,73132.0,-5.77,-6.47,-6.35,0,*54
1514041684.88,41671,7.69,73114.5,-5.77,-6.35,-6.35,0,*50
1514041686.11,41672,7.69,73136.0,-5.77,-6.43,-6.31,0,*56
1514041687.34,41673,7.69,73152.3,-5.77,-6.35,-6.35,0,*52
1514041688.57,41674,7.69,73134.8,-5.77,-6.35,-6.31,0,*51
1514041689.79,41675,7.69,73128.0,-5.77,-6.43,-6.35,0,*55
1514041691.0,41676,7.75,73120.8,-5.79,-6.43,-6.31,0,*5C
1514041692.22,41677,7.75,73058.5,-5.77,-6.47,-6.35,0,*53
1514041693.44,41678,7.69,73026.3,-5.77,-6.31,-6.35,0,*5D
1514041694.67,41679,7.69,73104.3,-5.77,-6.31,-6.35,0,*5C
1514041695.9,41680,7.69,73138.5,-5.77,-6.35,-6.35,0,*5E
1514041697.13,41681,7.69,73102.5,-5.77,-6.35,-6.35,0,*5F
1514041698.35,41682,7.69,73106.5,-5.77,-6.35,-6.35,0,*5C
1514041699.56,41683,7.75,73106.3,-5.79,-6.31,-6.35,0,*57
1514041700.79,41684,7.69,73112.0,-5.77,-6.35,-6.31,0,*5E
1514041701.99,41685,7.75,73106.8,-5.79,-6.35,-6.31,0,*51
1514041703.22,41686,7.69,73112.8,-5.77,-6.35,-6.31,0,*5C
1514041704.45,41687,7.69,73112.8,-5.77,-6.31,-6.35,0,*5D
1514041705.67,41688,7.75,73108.5,-5.77,-6.43,-6.35,0,*57
1514041706.9,41689,7.69,73124.3,-5.77,-6.43,-6.35,0,*56
1514041708.13,41690,7.75,73100.5,-5.77,-6.35,-6.35,0,*5F
1514041709.35,41691,7.69,73088.8,-5.77,-6.31,-6.31,0,*5E
1514041710.58,41692,7.69,73082.8,-5.77,-6.43,-6.43,0,*5D